Location: Angwan Shehu
(11.2514°N, 7.4613°E)
Time: 04:44:46
(UTC+00:00)

Vanguard 3 - Pass Details

Date: 05 August 2021
Orbit: 510 x 3260 km, 33.3° (Epoch: 16 September)

Event Time Altitude Azimuth Distance (km) Brightness Sun altitude
Rises 21:58:06 0° 305° (NW) 6,948 12.5 -53.0°
Reaches altitude 10° 22:02:35 10° 307° (NW) 6,082 12.0 -53.7°
Enters shadow 22:19:23 66° 339° (NNW) 3,364 10.0 -56.2°
